AD5L Weather Reports


Display with metric or nautical units.
time (UTC)temp
F
wind
direction
speed
MPH
gust
MPH
rain 1hr
in
rain 24hr
in
rain mn
in
humidity
%
barometer
mb
20260508213351 78 56 5.0 9.0 0.00 0.00 0.00 80 1009.9
20260508212332 78 39 3.0 6.0 0.00 0.00 0.00 79 1010.0
20260508211324 78 58 5.0 10.0 0.00 0.00 0.00 79 1010.1
20260508210334 77 50 3.0 7.0 0.00 0.00 0.00 81 1010.3
20260508205326 77 94 1.0 6.0 0.00 0.00 0.00 80 1010.6
20260508204336 76 93 4.0 9.0 0.00 0.00 0.00 80 1010.6
20260508203324 78 72 4.0 8.0 0.00 0.00 0.00 80 1010.8
20260508202334 76 147 3.0 8.0 0.00 0.00 0.00 81 1010.8
20260508201323 77 125 5.0 10.0 0.00 0.00 0.00 80 1010.9
20260508200333 75 114 6.0 9.0 0.00 0.00 0.00 82 1011.1
20260508195341 76 59 4.0 7.0 0.00 0.00 0.00 81 1011.2
20260508194331 75 143 3.0 6.0 0.00 0.00 0.00 81 1011.4
20260508193341 75 84 1.0 9.0 0.00 0.00 0.00 82 1011.5
20260508192327 75 88 3.0 7.0 0.00 0.00 0.00 81 1011.5
20260508191337 75 51 5.0 9.0 0.00 0.00 0.00 81 1011.8
20260508190328 75 91 2.0 7.0 0.00 0.00 0.00 82 1011.8
20260508185335 74 62 5.0 8.0 0.00 0.00 0.00 81 1012.0
20260508184323 74 69 3.0 8.0 0.00 0.00 0.00 81 1012.2
20260508183333 73 51 3.0 6.0 0.00 0.00 0.00 81 1012.3
20260508182344 73 51 2.0 5.0 0.00 0.00 0.00 83 1012.3
20260508181334 72 75 1.0 5.0 0.00 0.00 0.00 84 1012.5
20260508180345 71 60 3.0 4.0 0.00 0.00 0.00 84 1012.5
20260508175327 71 69 1.0 8.0 0.00 0.00 0.00 84 1012.6
20260508174347 71 47 1.0 4.0 0.00 0.00 0.00 84 1012.5
20260508173330 71 81 1.0 6.0 0.00 0.00 0.00 84 1012.6
20260508172349 70 349 1.0 5.0 0.00 0.00 0.00 85 1012.8
20260508171331 70 359 3.0 5.0 0.00 0.00 0.00 85 1012.9
20260508170341 69 61 0.0 2.0 0.00 0.00 0.00 84 1013.1
20260508165333 68 61 0.0 2.0 0.00 0.00 0.00 84 1013.4
20260508164342 68 43 1.0 3.0 0.00 0.00 0.00 85 1013.5
20260508163332 68 360 0.0 3.0 0.00 0.00 0.00 84 1013.4
20260508162340 68 73 1.0 2.0 0.00 0.00 0.00 83 1013.5
20260508161328 68 73 0.0 2.0 0.00 0.00 0.00 83 1013.7
20260508160340 68 134 0.0 2.0 0.00 0.00 0.00 83 1013.9
20260508155331 68 126 0.0 1.0 0.00 0.00 0.00 83 1014.0
20260508154341 67 126 0.0 2.0 0.00 0.00 0.00 83 1014.1
20260508153332 67 150 0.0 2.0 0.00 0.00 0.00 84 1014.2
20260508152340 67 103 1.0 3.0 0.00 0.00 0.00 85 1014.0
20260508151332 67 147 1.0 4.0 0.00 0.00 0.00 85 1014.0
20260508150341 67 111 1.0 6.0 0.00 0.00 0.00 84 1014.0
20260508145329 66 97 1.0 4.0 0.00 0.00 0.00 85 1014.0
20260508144337 66 101 1.0 3.0 0.00 0.00 0.00 85 1014.0
20260508143327 65 101 1.0 4.0 0.00 0.00 0.00 85 1013.9
20260508142337 65 98 1.0 4.0 0.00 0.00 0.00 85 1014.0
20260508141349 65 108 1.0 5.0 0.00 0.00 0.00 85 1014.1
20260508140336 65 129 1.0 4.0 0.00 0.00 0.00 86 1014.1
20260508135348 64 32 3.0 5.0 0.00 0.00 0.00 86 1013.8
20260508134340 63 153 0.0 2.0 0.00 0.00 0.00 87 1014.0
20260508133350 63 114 0.0 2.0 0.00 0.00 0.00 89 1014.3
20260508132330 62 94 0.0 1.0 0.00 0.00 0.00 89 1014.2
20260508131350 62 94 0.0 0.0 0.00 0.00 0.00 91 1014.5
20260508130332 61 94 0.0 0.0 0.00 0.00 0.00 91 1014.5
20260508125344 61 94 0.0 0.0 0.00 0.00 0.00 91 1014.5
20260508124333 61 94 0.0 1.0 0.00 0.00 0.00 92 1014.5
20260508123342 60 94 0.0 0.0 0.00 0.00 0.00 92 1014.5
20260508122332 60 94 0.0 1.0 0.00 0.00 0.00 92 1014.6
20260508121324 60 94 0.0 1.0 0.00 0.00 0.00 92 1014.7
20260508120332 60 94 0.0 1.0 0.00 0.00 0.00 92 1014.8
20260508115323 60 94 0.0 2.0 0.00 0.00 0.00 92 1014.7
20260508114335 60 310 0.0 0.0 0.00 0.00 0.00 92 1015.1
20260508113326 60 310 0.0 1.0 0.00 0.00 0.00 92 1015.2
20260508112338 60 310 0.0 2.0 0.00 0.00 0.00 92 1015.0
20260508111325 60 349 1.0 4.0 0.00 0.00 0.00 92 1014.9
20260508110335 60 13 2.0 4.0 0.00 0.00 0.00 92 1014.7
20260508105326 60 335 1.0 3.0 0.00 0.00 0.00 93 1014.8
20260508104337 60 321 0.0 3.0 0.00 0.00 0.00 93 1014.7
20260508103328 60 352 0.0 2.0 0.00 0.00 0.00 93 1015.0
20260508102336 60 302 0.0 1.0 0.00 0.00 0.00 93 1015.2
20260508101347 60 302 0.0 2.0 0.00 0.00 0.00 92 1015.2
20260508100335 60 352 0.0 3.0 0.00 0.00 0.00 92 1015.3
20260508095345 60 359 1.0 3.0 0.00 0.00 0.00 92 1015.3
20260508094326 61 345 2.0 4.0 0.00 0.00 0.00 90 1015.5
20260508093342 61 328 1.0 2.0 0.00 0.00 0.00 89 1015.6
20260508092325 61 315 0.0 0.0 0.00 0.00 0.00 89 1015.4
20260508091337 61 321 0.0 0.0 0.00 0.00 0.00 89 1015.2
20260508090327 61 119 0.0 0.0 0.00 0.00 0.00 89 1015.1
20260508085336 60 119 0.0 0.0 0.00 0.00 0.00 89 1015.0
20260508084327 60 119 0.0 0.0 0.00 0.00 0.00 90 1014.7
20260508083338 60 119 0.0 0.0 0.00 0.00 0.00 89 1015.1
20260508082328 60 119 0.0 0.0 0.00 0.00 0.00 89 1015.0
20260508081339 60 119 0.0 0.0 0.00 0.00 0.00 89 1014.7
20260508080329 60 119 0.0 0.0 0.00 0.00 0.00 90 1014.5
20260508075338 59 119 0.0 0.0 0.00 0.00 0.00 91 1014.6
20260508074330 59 307 0.0 0.0 0.00 0.00 0.00 92 1014.6
20260508073340 59 307 0.0 0.0 0.00 0.00 0.00 92 1014.7
20260508072330 58 307 0.0 0.0 0.00 0.00 0.00 93 1015.0
20260508071342 58 307 0.0 0.0 0.00 0.00 0.00 93 1015.0
20260508070332 58 307 0.0 1.0 0.00 0.00 0.00 93 1015.2
20260508065343 58 307 0.0 1.0 0.00 0.00 0.00 93 1015.5
20260508064335 58 307 0.0 0.0 0.00 0.00 0.00 93 1015.5
20260508063346 58 307 0.0 0.0 0.00 0.00 0.00 92 1015.8
20260508062338 58 307 0.0 0.0 0.00 0.00 0.00 92 1015.5
20260508061341 58 307 0.0 0.0 0.00 0.00 0.00 92 1015.7
20260508060323 58 307 0.0 2.0 0.00 0.00 0.00 91 1015.8
20260508055345 58 271 0.0 1.0 0.00 0.00 0.00 91 1015.8
20260508054326 58 271 0.0 1.0 0.00 0.00 0.00 91 1015.5
20260508053338 58 271 0.0 1.0 0.00 0.00 0.00 92 1015.5
20260508052329 58 271 0.0 1.0 0.00 0.00 0.00 92 1015.8
20260508051338 59 271 0.0 0.0 0.00 0.00 0.00 92 1015.6
20260508050323 59 271 0.0 1.0 0.00 0.00 0.00 92 1015.7
20260508045333 59 271 0.0 0.0 0.00 0.00 0.00 91 1015.9
20260508044324 59 271 0.0 2.0 0.00 0.00 0.00 92 1016.2
20260508043336 59 257 0.0 1.0 0.00 0.00 0.00 92 1016.1
20260508042328 59 257 0.0 1.0 0.00 0.00 0.00 92 1015.7
20260508041339 59 257 0.0 1.0 0.00 0.00 0.00 90 1016.0
20260508040330 59 257 0.0 1.0 0.00 0.00 0.00 90 1016.2
20260508035338 59 257 0.0 0.0 0.00 0.00 0.00 89 1016.1
20260508034329 60 257 0.0 1.0 0.00 0.00 0.00 88 1016.5
20260508033341 60 257 0.0 2.0 0.00 0.00 0.00 87 1016.7
20260508032333 61 176 0.0 2.0 0.00 0.00 0.00 87 1016.2
20260508031344 61 8 0.0 1.0 0.00 0.00 0.00 86 1016.4
20260508030335 61 8 0.0 1.0 0.00 0.00 0.00 86 1016.1
20260508025347 61 8 0.0 2.0 0.00 0.00 0.00 85 1015.5
20260508024339 61 8 0.0 1.0 0.00 0.00 0.00 85 1015.4
20260508023350 61 8 1.0 3.0 0.00 0.00 0.00 86 1015.1
20260508022327 61 9 0.0 3.0 0.00 0.00 0.00 86 1014.8
20260508021347 61 90 0.0 2.0 0.00 0.00 0.00 85 1014.8
20260508020330 62 90 0.0 1.0 0.00 0.00 0.00 84 1014.7
20260508015337 62 91 2.0 5.0 0.00 0.00 0.00 83 1014.7
20260508014329 62 85 3.0 4.0 0.00 0.00 0.00 83 1014.7
20260508013340 62 20 0.0 3.0 0.00 0.00 0.00 84 1014.9
20260508012330 62 18 2.0 4.0 0.00 0.00 0.00 83 1014.8
20260508011341 63 76 1.0 4.0 0.00 0.00 0.00 82 1014.6
20260508010331 63 96 0.0 2.0 0.00 0.00 0.00 81 1014.8
20260508005322 63 95 0.0 2.0 0.00 0.00 0.00 79 1015.1
20260508004332 63 19 1.0 3.0 0.00 0.00 0.00 80 1015.4
20260508003323 64 9 3.0 5.0 0.00 0.00 0.00 79 1015.3
20260508002333 64 38 1.0 3.0 0.00 0.00 0.00 78 1015.3
20260508001341 65 35 2.0 4.0 0.00 0.00 0.00 76 1015.5
20260508000334 65 32 1.0 4.0 0.00 0.00 0.00 77 1015.7
20260507235343 66 359 0.0 3.0 0.00 0.00 0.00 77 1016.2
20260507234333 66 359 0.0 4.0 0.00 0.00 0.00 75 1016.4
20260507233343 66 91 0.0 1.0 0.00 0.00 0.00 74 1016.5
20260507232334 65 91 1.0 5.0 0.00 0.00 0.00 75 1015.7
20260507231346 65 76 2.0 4.0 0.00 0.00 0.00 75 1015.3
20260507230334 65 41 0.0 6.0 0.00 0.00 0.00 75 1015.8
20260507225345 65 30 2.0 5.0 0.00 0.00 0.00 75 1015.8
20260507224327 65 30 1.0 4.0 0.00 0.00 0.00 75 1016.2
20260507223348 65 61 1.0 4.0 0.00 0.00 0.00 75 1016.6
20260507222330 65 35 2.0 4.0 0.00 0.00 0.00 73 1016.2
20260507221340 65 86 1.0 4.0 0.00 0.00 0.00 75 1016.4
20260507220331 65 44 3.0 7.0 0.00 0.00 0.00 74 1016.2
20260507215323 65 307 3.0 9.0 0.00 0.00 0.00 75 1017.2
20260507214334 65 360 4.0 8.0 0.00 0.00 0.00 74 1017.0